[[{"header":{"parameterUnit":"m.s-1","parameterCategory":2,"la1":30.2991,"la2":30.254,"lo1":-89.0895,"lo2":-89.0444,"dy":0.0017,"dx":0.0017,"nx":28,"ny":28,"refTime":"2025-12-22T09:00:00:Z","depth":"0","parameterNumber":2,"parameterNumberName":"U-component_of_CURRENTS"},"data":[0,0,0,0,0,0,0,0,0,0,0,0,0,0,0,0,0,0,0,0,0,0,0,0,0,0,0,0,0,0,0,0,0,0,0,0,0,0,0,0,0,0,0,0,0,0,0,0,0,0,0,0,0,0,0,0,0,0,0.3589,0.359,0,0.3646,0.3646,0.3646,0.3647,0.3647,0.3646,0.3646,0.3621,0.3621,0.362,0,0,0,0,0,0,0,0,0,0,0,0,0,0.3476,0.3478,0.3589,0.359,0.3591,0.3646,0.3646,0.3646,0.3647,0.3647,0.3646,0.3646,0.3621,0.3621,0.362,0,0,0,0,0,0,0,0,0,0,0,0,0,0.3525,0.3479,0.3588,0.3601,0.3603,0.3646,0.3646,0.3647,0.3647,0.3647,0.3646,0.3646,0.3621,0.3621,0.362,0.3628,0,0,0.3619,0.3619,0,0,0,0,0,0,0,0,0.3522,0.3528,0.3598,0.36,0.3602,0.3642,0.3598,0.3638,0.3647,0.3626,0.3646,0.3645,0.3624,0.3623,0.363,0.3627,0.3626,0.3619,0.3619,0.3618,0.3618,0,0,0,0,0,0,0,0.3518,0.3526,0.3607,0.3599,0.3602,0.3602,0.3608,0.3605,0.3623,0.3628,0.3629,0.3642,0.3623,0.3631,0.363,0.3626,0.3619,0.3618,0.3618,0.3618,0.3682,0.3684,0,0,0,0,0,0,0.3521,0.3523,0.3606,0.3609,0.3564,0.3605,0.3611,0.3627,0.3624,0.3625,0.3642,0.3642,0.3632,0.363,0.3629,0.3686,0.3618,0.3618,0.3618,0.368,0.3682,0.3685,0,0,0,0,0,0,0.3518,0.3528,0.3603,0.357,0.358,0.3608,0.3625,0.3628,0.3642,0.3637,0.3635,0.3653,0.3631,0.3629,0.3643,0.3682,0.3618,0.3617,0.3678,0.3681,0.3683,0.3768,0,0,0,0,0,0,0.3515,0.3526,0.3535,0.3571,0.3582,0.364,0.3626,0.363,0.3652,0.3652,0.3646,0.3643,0.3631,0.3644,0.3642,0.3681,0.3617,0.3675,0.3679,0.3683,0.3763,0.3774,0.3783,0,0,0,0,0,0.351,0.3528,0.3535,0.3545,0.3595,0.3641,0.3647,0.3662,0.3653,0.3669,0.3667,0.3643,0.3667,0.3645,0.3642,0.3682,0.3673,0.3678,0.3682,0.3758,0.3771,0.3783,0,0,0,0,0,0,0.3482,0.3531,0.354,0.357,0.3608,0.3643,0.3659,0.3668,0.368,0.3675,0.3661,0.3659,0.3691,0.3673,0.3649,0.3713,0.3669,0.3674,0.3728,0.374,0.375,0.3753,0.3616,0,0,0,0,0,0.3482,0.3507,0.3555,0.358,0.36,0.3629,0.3648,0.3663,0.3682,0.3686,0.3686,0.3689,0.3709,0.3712,0.372,0.3745,0.3779,0.3773,0.3783,0.3791,0.3794,0.3882,0.3901,0.3699,0.3699,0.3699,0,0,0.3477,0.3508,0.3522,0.3576,0.3602,0.3645,0.3639,0.3676,0.3708,0.368,0.3713,0.3722,0.3724,0.3763,0.3776,0.3751,0.3876,0.3797,0.3804,0.3802,0.3889,0.3909,0.3927,0.3702,0.3702,0.3701,0,0,0.3486,0.3511,0.3538,0.3576,0.3628,0.3655,0.3669,0.3713,0.3728,0.3765,0.3763,0.3795,0.3809,0.3832,0.3842,0.391,0.3928,0.3915,0.3965,0.4051,0.4069,0.4084,0.4193,0.4218,0.3917,0.3918,0.3918,0,0.3476,0.3523,0.3553,0.3596,0.3633,0.3662,0.3708,0.3734,0.3775,0.3803,0.3784,0.3857,0.3846,0.392,0.394,0.3933,0.3993,0.3918,0.4066,0.4082,0.4096,0.4203,0.4229,0.3922,0.3922,0.3921,0.3921,0,0.3516,0.3554,0.3576,0.3642,0.3684,0.3729,0.3779,0.3817,0.3838,0.387,0.3943,0.395,0.4,0.4006,0.3986,0.4091,0.4108,0.4073,0.4036,0.4122,0.4229,0.4255,0.3929,0.3927,0.3926,0.3925,0,0,0.3493,0.3584,0.3592,0.3637,0.3715,0.3759,0.3821,0.3898,0.3958,0.399,0.4081,0.4103,0.4122,0.4134,0.4136,0.419,0.4344,0.4173,0.4176,0.4283,0.4573,0.4526,0.4549,0.4342,0.4346,0.4349,0.4621,0,0.3516,0.3599,0.3639,0.3725,0.3781,0.3835,0.3898,0.3969,0.4027,0.412,0.4153,0.4228,0.4169,0.4212,0.4263,0.4329,0.4409,0.4275,0.447,0.4476,0.4425,0.4575,0.4406,0.4628,0.4646,0.465,0.4653,0,0.355,0.3604,0.3688,0.3792,0.3821,0.3872,0.4,0.406,0.4183,0.4233,0.4318,0.4357,0.4461,0.4388,0.456,0.4486,0.4536,0.4572,0.4583,0.452,0.4475,0.4537,0.4673,0.4531,0.4693,0.4689,0.4687,0,0.3553,0.3643,0.3712,0.3749,0.3866,0.3914,0.3975,0.4094,0.4176,0.4318,0.4413,0.4521,0.4616,0.4686,0.4753,0.4682,0.4949,0.4865,0.488,0.4879,0.476,0.4741,0.4775,0.4994,0.4993,0.4992,0.4991,0,0.3588,0.3649,0.3715,0.3765,0.3859,0.3925,0.4046,0.4126,0.4267,0.438,0.4472,0.46,0.4693,0.4842,0.486,0.498,0.5053,0.4934,0.4955,0.4788,0.4769,0.4654,0.4594,0.5002,0.5,0.4998,0.4996,0,0.3627,0.3661,0.3751,0.3844,0.3874,0.3948,0.4088,0.4165,0.4304,0.4468,0.4524,0.4728,0.4916,0.502,0.518,0.5139,0.5097,0.5246,0.5055,0.5047,0.4855,0.4807,0.473,0.4581,0.5312,0.5312,0.5313,0,0.3675,0.3718,0.3805,0.3834,0.388,0.3981,0.4039,0.4174,0.4256,0.4529,0.4603,0.4862,0.4986,0.5249,0.5268,0.5365,0.517,0.5233,0.5028,0.4864,0.4828,0.4616,0.4478,0.494,0.4938,0.4935,0.4934,0,0.3763,0.3776,0.3826,0.387,0.3919,0.3991,0.4078,0.4153,0.4308,0.4451,0.4631,0.4761,0.504,0.5075,0.5231,0.524,0.4971,0.5189,0.507,0.4594,0.4318,0.4176,0.4765,0.4915,0.4917,0.4918,0.4919,0.492,0.3811,0.3836,0.385,0.389,0.393,0.3944,0.3955,0.4051,0.4164,0.4311,0.4532,0.4662,0.4855,0.5045,0.5032,0.4913,0.4861,0.4737,0.4723,0.4546,0.428,0.4837,0.4956,0.4958,0.496,0.4962,0.4963,0,0.3827,0.3818,0.3859,0.3856,0.384,0.3881,0.3923,0.3891,0.3936,0.4153,0.4285,0.4449,0.454,0.4648,0.4644,0.4457,0.422,0.4338,0.3993,0.39,0.4467,0.4323,0.4245,0.4245,0.4245,0.4245,0.4245,0.4246,0.3816,0.3805,0.3797,0.3739,0.3726,0.3638,0.3614,0.36,0.3691,0.3759,0.384,0.3987,0.4219,0.4395,0.4243,0.4133,0.3771,0.3641,0.3602,0.4003,0.4036,0.4067,0.3915,0.3753,0.3753,0.2837,0.283,0.2825]},{"header":{"parameterUnit":"m.s-1","parameterCategory":2,"la1":30.2991,"la2":30.254,"lo1":-89.0895,"lo2":-89.0444,"dy":0.0017,"dx":0.0017,"nx":28,"ny":28,"refTime":"2025-12-22T09:00:00:Z","depth":"0","parameterNumber":3,"parameterNumberName":"V-component_of_CURRENTS"},"data":[0,0,0,0,0,0,0,0,0,0,0,0,0,0,0,0,0,0,0,0,0,0,0,0,0,0,0,0,0,0,0,0,0,0,0,0,0,0,0,0,0,0,0,0,0,0,0,0,0,0,0,0,0,0,0,0,0,0,-0.0185,-0.0185,0,-0.0238,-0.0239,-0.024,-0.0293,-0.0293,-0.0294,-0.0294,-0.04,-0.0402,-0.0405,0,0,0,0,0,0,0,0,0,0,0,0,0,-0.0193,-0.0192,-0.0185,-0.0185,-0.0186,-0.0238,-0.0239,-0.024,-0.0293,-0.0293,-0.0294,-0.0294,-0.0399,-0.0402,-0.0405,0,0,0,0,0,0,0,0,0,0,0,0,0,-0.0214,-0.0192,-0.0185,-0.0216,-0.022,-0.0238,-0.0239,-0.024,-0.0293,-0.0293,-0.0294,-0.0295,-0.0398,-0.0402,-0.0405,-0.0413,0,0,-0.0416,-0.0418,0,0,0,0,0,0,0,0,-0.0213,-0.0214,-0.0211,-0.0214,-0.0218,-0.0257,-0.028,-0.03,-0.0292,-0.0268,-0.0294,-0.0295,-0.0355,-0.0362,-0.0374,-0.0418,-0.0423,-0.0417,-0.0419,-0.042,-0.0421,0,0,0,0,0,0,0,-0.0211,-0.0213,-0.0209,-0.0212,-0.0216,-0.025,-0.0253,-0.0285,-0.031,-0.027,-0.0273,-0.0275,-0.0358,-0.037,-0.0376,-0.0424,-0.0416,-0.042,-0.0422,-0.0423,-0.0498,-0.0498,0,0,0,0,0,0,-0.0195,-0.0211,-0.0207,-0.021,-0.0214,-0.0249,-0.0253,-0.0246,-0.0308,-0.0317,-0.0274,-0.0277,-0.0363,-0.0372,-0.038,-0.0395,-0.042,-0.0424,-0.0426,-0.0499,-0.0498,-0.0498,0,0,0,0,0,0,-0.0195,-0.0194,-0.0205,-0.021,-0.0214,-0.0247,-0.024,-0.0247,-0.0258,-0.031,-0.0321,-0.0277,-0.0364,-0.0375,-0.0403,-0.0399,-0.0425,-0.0428,-0.0499,-0.0499,-0.0498,-0.0423,0,0,0,0,0,0,-0.0195,-0.0193,-0.0186,-0.0209,-0.0213,-0.0207,-0.0239,-0.0247,-0.0256,-0.0261,-0.0317,-0.0327,-0.0366,-0.0397,-0.0406,-0.0405,-0.0431,-0.0499,-0.0499,-0.0498,-0.0426,-0.042,-0.0416,0,0,0,0,0,-0.0195,-0.0175,-0.0185,-0.0185,-0.02,-0.0206,-0.0211,-0.024,-0.0256,-0.0254,-0.0292,-0.0326,-0.0402,-0.0399,-0.041,-0.041,-0.0499,-0.0499,-0.0498,-0.0428,-0.0421,-0.0416,0,0,0,0,0,0,-0.0173,-0.0179,-0.0191,-0.0173,-0.0186,-0.0214,-0.0214,-0.0232,-0.0261,-0.0267,-0.032,-0.0332,-0.0358,-0.0392,-0.0387,-0.0432,-0.0458,-0.046,-0.0401,-0.0395,-0.039,-0.035,-0.0434,0,0,0,0,0,-0.0163,-0.0151,-0.0166,-0.0153,-0.0156,-0.0184,-0.0191,-0.0208,-0.0234,-0.0247,-0.0284,-0.0328,-0.0365,-0.0385,-0.0422,-0.044,-0.0433,-0.045,-0.0445,-0.044,-0.0415,-0.04,-0.039,-0.0497,-0.0497,-0.0497,0,0,-0.0151,-0.0153,-0.0147,-0.0148,-0.0162,-0.0153,-0.0191,-0.0193,-0.0188,-0.0254,-0.0263,-0.031,-0.0366,-0.039,-0.0405,-0.0417,-0.0405,-0.044,-0.0435,-0.0412,-0.0399,-0.0388,-0.0378,-0.0497,-0.0497,-0.0497,0,0,-0.0114,-0.0122,-0.0098,-0.0105,-0.0114,-0.0129,-0.0124,-0.0147,-0.0162,-0.0176,-0.0225,-0.0261,-0.0316,-0.0351,-0.0378,-0.0365,-0.0378,-0.0388,-0.0329,-0.0315,-0.0305,-0.0297,-0.0261,-0.0249,-0.0385,-0.0385,-0.0385,0,-0.0099,-0.0068,-0.0093,-0.0075,-0.0069,-0.0111,-0.0083,-0.0104,-0.0133,-0.0129,-0.0169,-0.0228,-0.0295,-0.0303,-0.0317,-0.0352,-0.0334,-0.0347,-0.0305,-0.0296,-0.0289,-0.0254,-0.0243,-0.0382,-0.0382,-0.0382,-0.0383,0,-0.0042,-0.0023,-0.001,0.0003,0.0002,0.0019,-0.0007,-0.0011,-0.0037,-0.0053,-0.0066,-0.0145,-0.017,-0.0215,-0.0273,-0.0256,-0.0256,-0.0297,-0.0311,-0.0272,-0.024,-0.0229,-0.0376,-0.0378,-0.0379,-0.038,0,0,0.002,0.0031,0.0038,0.0069,0.0049,0.0071,0.0067,0.0079,0.0124,0.0055,0.0115,-0.0007,-0.0035,-0.0068,-0.0138,-0.0151,-0.0113,-0.0201,-0.0203,-0.0148,-0.005,-0.006,-0.0049,-0.014,-0.0139,-0.0137,-0.0043,0,0.008,0.0147,0.0124,0.019,0.0229,0.0187,0.021,0.0207,0.0196,0.0241,0.0155,0.0177,0.0018,0.0031,-0.0021,-0.0074,-0.0083,-0.0132,-0.0111,-0.0109,-0.0109,-0.0037,-0.008,-0.0001,-0.0033,-0.0031,-0.003,0,0.0157,0.0196,0.0275,0.0323,0.0338,0.0369,0.0429,0.0443,0.0459,0.0457,0.0436,0.0391,0.035,0.0229,0.0145,0.0126,0.0043,-0.0013,-0.0011,-0.0034,-0.0098,-0.005,0.002,-0.0241,-0.0014,-0.0015,-0.0016,0,0.0267,0.0309,0.0389,0.0401,0.044,0.048,0.0504,0.0525,0.0591,0.0628,0.0711,0.0615,0.0654,0.0501,0.0338,0.0259,0.0288,0.0166,0.0086,0.0085,0.0047,0.0039,-0.0118,0.0132,0.0132,0.0131,0.0131,0,0.0367,0.0439,0.0457,0.0515,0.0639,0.0608,0.075,0.0759,0.0831,0.0971,0.0853,0.0977,0.073,0.0699,0.0471,0.0344,0.0391,0.0134,0.0117,0.0071,0.0065,-0.0168,-0.0317,0.0135,0.0134,0.0133,0.0133,0,0.0512,0.0508,0.0624,0.0678,0.0708,0.0812,0.0927,0.1028,0.1074,0.1267,0.1305,0.1303,0.1261,0.102,0.0845,0.0585,0.0279,0.0361,0.0335,0.0311,-0.0081,-0.0222,-0.0337,-0.0437,0.0265,0.0265,0.0266,0,0.0608,0.0673,0.0775,0.0851,0.0893,0.1021,0.1115,0.1163,0.1283,0.1487,0.1611,0.1654,0.1722,0.1464,0.102,0.0676,0.0393,0.039,0.019,-0.0071,-0.0241,-0.0346,-0.0431,0.0176,0.0176,0.0175,0.0175,0,0.0793,0.082,0.0904,0.1041,0.1155,0.1296,0.1434,0.1566,0.1665,0.1853,0.2095,0.2187,0.1969,0.1628,0.1147,0.085,0.0183,0.0372,0.0105,-0.0306,-0.0431,-0.0544,0.0094,0.0172,0.0173,0.0173,0.0173,0.0173,0.0935,0.1013,0.1085,0.1219,0.1353,0.1518,0.166,0.183,0.2063,0.2351,0.2436,0.2635,0.2093,0.1437,0.1039,0.0192,0.0202,-0.0122,-0.0257,-0.0328,-0.048,0.017,0.0214,0.0215,0.0215,0.0215,0.0216,0,0.1052,0.1102,0.1242,0.1381,0.1533,0.1579,0.1824,0.1984,0.2275,0.2596,0.2829,0.2666,0.2005,0.1286,0.0167,-0.0366,-0.0587,-0.0666,-0.0871,-0.0919,-0.0338,-0.0403,-0.0494,-0.0494,-0.0494,-0.0494,-0.0493,-0.0493,0.1111,0.1212,0.1247,0.147,0.1589,0.1799,0.1941,0.2226,0.2485,0.2856,0.2998,0.3082,0.2423,0.0554,-0.0698,-0.097,-0.1361,-0.1435,-0.1574,-0.1263,-0.1225,-0.1188,-0.1288,-0.1563,-0.1564,-0.2123,-0.2129,-0.2134]}],[{"header":{"parameterUnit":"m.s-1","parameterCategory":2,"la1":30.2991,"la2":30.254,"lo1":-89.0895,"lo2":-89.0444,"dy":0.0017,"dx":0.0017,"nx":28,"ny":28,"refTime":"2025-12-22T09:00:00:Z","depth":"2","parameterNumber":2,"parameterNumberName":"U-component_of_CURRENTS"},"data":[0,0,0,0,0,0,0,0,0,0,0,0,0,0,0,0,0,0,0,0,0,0,0,0,0,0,0,0,0,0,0,0,0,0,0,0,0,0,0,0,0,0,0,0,0,0,0,0,0,0,0,0,0,0,0,0,0,0,0.2734,0.2734,0,0.2789,0.279,0.279,0.2803,0.2803,0.2803,0.2803,0.2838,0.2839,0.284,0,0,0,0,0,0,0,0,0,0,0,0,0,0.2646,0.2647,0.2734,0.2735,0.2736,0.2789,0.279,0.279,0.2803,0.2803,0.2803,0.2803,0.2838,0.2839,0.284,0,0,0,0,0,0,0,0,0,0,0,0,0,0.2688,0.2648,0.2733,0.2751,0.2753,0.2789,0.279,0.279,0.2803,0.2803,0.2803,0.2803,0.2837,0.2839,0.284,0.2853,0,0,0.2845,0.2846,0,0,0,0,0,0,0,0,0.2686,0.2691,0.2747,0.275,0.2752,0.2792,0.2772,0.2811,0.2803,0.2781,0.2803,0.2803,0.2823,0.2825,0.2832,0.2855,0.2856,0.2845,0.2846,0.2847,0.2847,0,0,0,0,0,0,0,0.2683,0.2689,0.2753,0.2748,0.2751,0.2759,0.2764,0.278,0.2799,0.2783,0.2785,0.2796,0.2824,0.2831,0.2833,0.2857,0.2845,0.2846,0.2847,0.2848,0.2948,0.2949,0,0,0,0,0,0,0.2682,0.2686,0.2751,0.2755,0.2721,0.2761,0.2766,0.2777,0.28,0.2804,0.2796,0.2796,0.2828,0.2831,0.2834,0.2901,0.2847,0.2848,0.2849,0.2946,0.2948,0.295,0,0,0,0,0,0,0.268,0.2687,0.2749,0.2724,0.2733,0.2762,0.2774,0.2778,0.28,0.281,0.2814,0.2815,0.2828,0.2832,0.2868,0.29,0.2849,0.285,0.2944,0.2947,0.2949,0.3002,0,0,0,0,0,0,0.2677,0.2686,0.2694,0.2724,0.2734,0.2782,0.2775,0.2779,0.2808,0.2809,0.2828,0.283,0.2828,0.2866,0.287,0.2902,0.2851,0.2942,0.2945,0.2948,0.2998,0.3006,0.3013,0,0,0,0,0,0.2674,0.2687,0.2694,0.2702,0.2744,0.2783,0.2789,0.2807,0.2809,0.2825,0.2842,0.283,0.2889,0.2869,0.2873,0.2906,0.294,0.2944,0.2948,0.2994,0.3004,0.3012,0,0,0,0,0,0,0.2647,0.269,0.2699,0.2722,0.2757,0.2787,0.2807,0.2818,0.2844,0.2848,0.2851,0.2855,0.2903,0.2898,0.2875,0.2945,0.2914,0.2919,0.2948,0.2957,0.2964,0.2973,0.2853,0,0,0,0,0,0.2647,0.2677,0.2711,0.2736,0.2752,0.2782,0.2801,0.2817,0.2844,0.2855,0.2869,0.2889,0.292,0.2932,0.2955,0.2988,0.301,0.3014,0.3021,0.3027,0.3038,0.3103,0.3117,0.2963,0.2963,0.2963,0,0,0.2644,0.2675,0.269,0.2734,0.2761,0.2793,0.2793,0.2832,0.2862,0.2855,0.29,0.2919,0.2937,0.2981,0.3001,0.298,0.3085,0.3032,0.3037,0.3045,0.3109,0.3124,0.3137,0.2965,0.2965,0.2964,0,0,0.2657,0.2682,0.2709,0.2741,0.279,0.2813,0.2828,0.2867,0.2888,0.2933,0.2943,0.2983,0.3016,0.3041,0.3056,0.3118,0.3127,0.3126,0.3164,0.3227,0.324,0.3252,0.3309,0.3325,0.3123,0.3123,0.3123,0,0.2653,0.269,0.2723,0.2757,0.2787,0.2824,0.2855,0.2887,0.2934,0.2961,0.2954,0.3039,0.3048,0.3116,0.3136,0.3136,0.3172,0.3126,0.3237,0.3249,0.3261,0.3315,0.3333,0.3126,0.3126,0.3125,0.3125,0,0.2681,0.2716,0.2739,0.2796,0.2829,0.287,0.2915,0.2957,0.2987,0.3015,0.3091,0.3115,0.3165,0.3177,0.3174,0.3262,0.3264,0.3244,0.3213,0.3279,0.3333,0.335,0.313,0.3129,0.3128,0.3128,0,0,0.2661,0.2742,0.275,0.2779,0.2855,0.2881,0.295,0.3015,0.3066,0.3112,0.3182,0.3233,0.3252,0.3272,0.3283,0.3332,0.3438,0.3324,0.3325,0.3377,0.3588,0.3534,0.3548,0.3443,0.3446,0.3449,0.3596,0,0.2677,0.2736,0.2777,0.2838,0.287,0.2932,0.2993,0.3058,0.3116,0.3193,0.3241,0.3311,0.3287,0.3325,0.3372,0.3433,0.3486,0.3401,0.3518,0.3521,0.3464,0.3567,0.3287,0.339,0.3612,0.3615,0.3617,0,0.2684,0.2729,0.2783,0.2864,0.2884,0.293,0.3036,0.309,0.3207,0.3259,0.3338,0.3383,0.3481,0.3443,0.358,0.3532,0.3566,0.3599,0.3605,0.3548,0.35,0.3359,0.3413,0.3646,0.3644,0.3642,0.364,0,0.2644,0.2728,0.2771,0.2799,0.2899,0.2944,0.3,0.3111,0.3182,0.3309,0.3393,0.3487,0.3576,0.3631,0.3698,0.3657,0.3845,0.3791,0.3774,0.3771,0.3552,0.3523,0.3885,0.3885,0.3884,0.3884,0.3884,0,0.2641,0.2673,0.2759,0.2782,0.2851,0.292,0.3004,0.3087,0.3225,0.3308,0.3421,0.3521,0.3633,0.3745,0.3759,0.3838,0.3897,0.3814,0.3818,0.3563,0.3535,0.376,0.3743,0.3889,0.3888,0.3887,0.3886,0,0.2597,0.2649,0.27,0.2799,0.2833,0.2878,0.3008,0.307,0.3219,0.3344,0.34,0.3604,0.3743,0.3841,0.3962,0.3937,0.3994,0.3995,0.3691,0.3656,0.386,0.3845,0.4003,0.4002,0.4002,0.4002,0.4002,0,0.2576,0.26,0.2695,0.2715,0.2764,0.284,0.2896,0.3048,0.3116,0.3366,0.3422,0.3645,0.3744,0.3939,0.3948,0.4003,0.4032,0.3761,0.362,0.3891,0.3879,0.3864,0.3849,0.3355,0.335,0.3345,0.3341,0,0.2542,0.2579,0.2621,0.2666,0.2718,0.2766,0.2854,0.292,0.3087,0.3221,0.3387,0.3504,0.3725,0.3677,0.3787,0.376,0.3727,0.3672,0.406,0.3366,0.3291,0.3275,0.328,0.3301,0.3305,0.3308,0.331,0.3312,0.251,0.2522,0.2567,0.2607,0.2645,0.2659,0.2652,0.276,0.2859,0.3005,0.321,0.3306,0.342,0.3454,0.3381,0.3344,0.3581,0.3413,0.3422,0.3437,0.3333,0.3261,0.3247,0.325,0.3254,0.3256,0.3259,0,0.2437,0.2457,0.2494,0.2506,0.248,0.2557,0.2589,0.2544,0.2582,0.28,0.2924,0.2801,0.2843,0.2943,0.284,0.2874,0.2796,0.275,0.2607,0.2653,0.2693,0.2544,0.2252,0.2248,0.2245,0.2241,0,0,0.2383,0.2373,0.2396,0.2331,0.2341,0.2276,0.226,0.2216,0.2294,0.2334,0.2417,0.2725,0.2881,0.252,0.2504,0.235,0.2466,0.2267,0.309,0.297,0.3003,0.3112,0.2942,0,0,0,0,0]},{"header":{"parameterUnit":"m.s-1","parameterCategory":2,"la1":30.2991,"la2":30.254,"lo1":-89.0895,"lo2":-89.0444,"dy":0.0017,"dx":0.0017,"nx":28,"ny":28,"refTime":"2025-12-22T09:00:00:Z","depth":"2","parameterNumber":3,"parameterNumberName":"V-component_of_CURRENTS"},"data":[0,0,0,0,0,0,0,0,0,0,0,0,0,0,0,0,0,0,0,0,0,0,0,0,0,0,0,0,0,0,0,0,0,0,0,0,0,0,0,0,0,0,0,0,0,0,0,0,0,0,0,0,0,0,0,0,0,0,0.0064,0.0064,0,-0.0004,-0.0005,-0.0006,-0.006,-0.006,-0.0061,-0.0061,-0.0165,-0.0168,-0.017,0,0,0,0,0,0,0,0,0,0,0,0,0,0.0081,0.0081,0.0064,0.0063,0.0063,-0.0004,-0.0005,-0.0006,-0.006,-0.006,-0.0061,-0.0061,-0.0164,-0.0167,-0.017,0,0,0,0,0,0,0,0,0,0,0,0,0,0.0047,0.0081,0.0064,0.003,0.0026,-0.0004,-0.0005,-0.0007,-0.006,-0.006,-0.0061,-0.0061,-0.0163,-0.0167,-0.0171,-0.0183,0,0,-0.0182,-0.0184,0,0,0,0,0,0,0,0,0.0049,0.0047,0.0035,0.0032,0.0028,-0.0022,-0.0038,-0.0067,-0.006,-0.0029,-0.0061,-0.0062,-0.0119,-0.0126,-0.0141,-0.0188,-0.0193,-0.0182,-0.0185,-0.0186,-0.0187,0,0,0,0,0,0,0,0.0052,0.0049,0.0035,0.0035,0.003,-0.0006,-0.0011,-0.0044,-0.0073,-0.0032,-0.0036,-0.004,-0.0122,-0.0137,-0.0143,-0.0194,-0.0182,-0.0185,-0.0188,-0.0189,-0.0258,-0.0258,0,0,0,0,0,0,0.0069,0.0052,0.0037,0.0033,0.004,-0.0005,-0.0011,-0.0007,-0.0072,-0.0081,-0.0039,-0.0042,-0.013,-0.0139,-0.0147,-0.0151,-0.0186,-0.019,-0.0192,-0.0258,-0.0258,-0.0258,0,0,0,0,0,0,0.0069,0.0068,0.004,0.0042,0.0036,-0.0004,-0.0,-0.0008,-0.0021,-0.0077,-0.0087,-0.0043,-0.0131,-0.0142,-0.0169,-0.0156,-0.0191,-0.0195,-0.0259,-0.0258,-0.0258,-0.0168,0,0,0,0,0,0,0.007,0.0069,0.0075,0.0043,0.0036,0.0035,-0.0,-0.0009,-0.0022,-0.0026,-0.0083,-0.0094,-0.0132,-0.0163,-0.0173,-0.0162,-0.0197,-0.0259,-0.0259,-0.0258,-0.0171,-0.0164,-0.0158,0,0,0,0,0,0.0071,0.0091,0.0076,0.0074,0.0047,0.0036,0.003,-0.0003,-0.0021,-0.0018,-0.0059,-0.0092,-0.0166,-0.0166,-0.0177,-0.0167,-0.026,-0.0259,-0.0258,-0.0174,-0.0166,-0.0158,0,0,0,0,0,0,0.0103,0.0087,0.0069,0.0083,0.0064,0.0028,0.0027,0.0005,-0.0026,-0.0032,-0.0087,-0.0099,-0.012,-0.0156,-0.0154,-0.0186,-0.0219,-0.022,-0.0151,-0.0143,-0.0137,-0.0115,-0.0201,0,0,0,0,0,0.0114,0.0121,0.0097,0.0105,0.0101,0.0064,0.0054,0.0034,0.0004,-0.001,-0.0049,-0.0092,-0.0125,-0.0143,-0.018,-0.0194,-0.0233,-0.0196,-0.0189,-0.0183,-0.0174,-0.0224,-0.0221,-0.0255,-0.0255,-0.0255,0,0,0.0127,0.0119,0.0121,0.0112,0.0092,0.0101,0.0057,0.0052,0.0056,-0.0016,-0.0024,-0.0071,-0.0125,-0.0142,-0.0154,-0.0169,-0.0193,-0.0182,-0.0176,-0.0171,-0.0223,-0.0219,-0.0216,-0.0254,-0.0254,-0.0254,0,0,0.0165,0.0152,0.0173,0.0165,0.0149,0.013,0.0134,0.0104,0.0088,0.0072,0.0022,-0.0013,-0.0064,-0.0097,-0.0121,-0.0101,-0.0159,-0.0116,-0.0063,-0.0111,-0.0109,-0.0107,-0.0146,-0.0148,-0.0111,-0.011,-0.011,0,0.0181,0.0206,0.0176,0.0196,0.02,0.0151,0.0178,0.0156,0.012,0.0112,0.0082,0.0006,-0.0041,-0.0061,-0.0056,-0.0085,-0.0121,-0.0086,-0.0102,-0.0101,-0.0101,-0.0141,-0.0145,-0.0106,-0.0106,-0.0107,-0.0107,0,0.0235,0.0254,0.0267,0.0277,0.0276,0.0291,0.0265,0.0256,0.0226,0.0198,0.0167,0.0097,0.0054,0.0031,-0.0008,-0.0025,-0.0055,-0.0088,-0.0117,-0.0091,-0.0136,-0.0141,-0.01,-0.0101,-0.0102,-0.0104,0,0,0.0276,0.0303,0.0307,0.033,0.0323,0.0333,0.0341,0.0336,0.0343,0.0288,0.0289,0.0218,0.0171,0.014,0.0082,0.0038,0.0006,-0.0017,-0.0022,-0.0046,-0.0096,-0.0126,-0.0136,-0.0033,-0.0034,-0.0034,-0.0125,0,0.0327,0.039,0.0386,0.0441,0.0472,0.0441,0.0456,0.044,0.0409,0.0395,0.0316,0.029,0.0216,0.0195,0.014,0.004,-0.0006,0.0034,-0.0125,-0.0129,-0.0152,-0.0142,-0.0105,-0.0184,-0.0131,-0.0132,-0.0132,0,0.0381,0.0419,0.0487,0.0532,0.0542,0.0563,0.0577,0.0586,0.0548,0.052,0.047,0.0405,0.0339,0.0269,0.0116,0.0144,0.0036,-0.0049,-0.0055,-0.0118,-0.017,-0.0204,-0.0197,-0.0143,-0.0142,-0.0141,-0.014,0,0.0428,0.0489,0.055,0.0565,0.0603,0.0623,0.0638,0.0621,0.0647,0.0598,0.0604,0.0498,0.0459,0.031,0.0135,0.0123,-0.0039,-0.008,-0.0207,-0.0211,-0.0227,-0.0231,-0.0188,-0.0188,-0.0188,-0.0188,-0.0187,0,0.0485,0.0532,0.0576,0.0611,0.0684,0.0683,0.0746,0.0734,0.0743,0.0783,0.0675,0.0679,0.0466,0.035,0.0172,-0.0029,-0.0014,-0.0194,-0.0236,-0.0195,-0.0194,-0.02,-0.02,-0.0191,-0.019,-0.019,-0.0189,0,0.0519,0.055,0.0627,0.0685,0.0709,0.0757,0.0836,0.0883,0.087,0.0919,0.0914,0.082,0.0661,0.044,0.0199,0.0035,-0.0166,-0.0244,-0.0176,-0.0209,-0.0316,-0.031,-0.0392,-0.0394,-0.0396,-0.0397,-0.0398,0,0.0544,0.0587,0.0681,0.0739,0.0769,0.0847,0.091,0.0938,0.1003,0.101,0.1051,0.0921,0.0849,0.0488,0.0166,-0.0147,-0.0185,-0.0317,-0.034,-0.0304,-0.0337,-0.0329,-0.0321,-0.0325,-0.0326,-0.0326,-0.0326,0,0.0592,0.0621,0.0684,0.0808,0.089,0.0995,0.109,0.1168,0.1206,0.1244,0.1276,0.1218,0.0876,0.057,0.0134,-0.0079,-0.0267,-0.0334,-0.0317,-0.0278,-0.0248,-0.0278,-0.0272,-0.0329,-0.0329,-0.0329,-0.0329,-0.0328,0.0622,0.0674,0.0767,0.0881,0.0993,0.1136,0.1234,0.1341,0.1453,0.1525,0.1457,0.1383,0.1016,0.0473,0.0094,-0.0298,-0.0292,-0.0417,-0.0413,-0.0409,-0.0384,-0.0358,-0.0455,-0.0455,-0.0456,-0.0456,-0.0456,0,0.0676,0.0737,0.0842,0.0991,0.1126,0.1177,0.1356,0.1449,0.1591,0.1652,0.1667,0.1327,0.0972,0.0555,-0.0025,-0.0379,-0.0398,-0.0484,-0.0422,-0.0417,-0.0413,-0.0385,-0.0459,-0.046,-0.0461,-0.0461,0,0,0.0707,0.0814,0.0868,0.1081,0.1192,0.1378,0.1487,0.1608,0.1699,0.1756,0.1728,0.1633,0.1117,0.0707,0.0215,-0.0114,-0.0179,-0.0181,-0.0142,-0.0006,0.0003,-0.0343,-0.0291,0,0,0,0,0]}],[{"header":{"parameterUnit":"m.s-1","parameterCategory":2,"la1":30.2991,"la2":30.254,"lo1":-89.0895,"lo2":-89.0444,"dy":0.0017,"dx":0.0017,"nx":28,"ny":28,"refTime":"2025-12-22T09:00:00:Z","depth":"4","parameterNumber":2,"parameterNumberName":"U-component_of_CURRENTS"},"data":[0,0,0,0,0,0,0,0,0,0,0,0,0,0,0,0,0,0,0,0,0,0,0,0,0,0,0,0,0,0,0,0,0,0,0,0,0,0,0,0,0,0,0,0,0,0,0,0,0,0,0,0,0,0,0,0,0,0,0.1734,0.1736,0,0.1826,0.1827,0.1828,0.1899,0.19,0.1901,0.1901,0.201,0.2012,0.2014,0,0,0,0,0,0,0,0,0,0,0,0,0,0.1617,0.1619,0.1734,0.1736,0.1737,0.1826,0.1827,0.1828,0.1899,0.19,0.1901,0.1902,0.201,0.2012,0.2015,0,0,0,0,0,0,0,0,0,0,0,0,0,0.1682,0.1619,0.1734,0.1784,0.179,0.1826,0.1827,0.1828,0.1899,0.19,0.1901,0.1902,0.2009,0.2012,0.2015,0.2009,0,0,0.2025,0.2026,0,0,0,0,0,0,0,0,0.1679,0.1686,0.1776,0.1781,0.1787,0.1854,0.1826,0.189,0.1898,0.1855,0.1901,0.1903,0.196,0.1967,0.1979,0.2014,0.2019,0.2025,0.2027,0.2028,0.2029,0,0,0,0,0,0,0,0.1674,0.1683,0.1769,0.1777,0.1784,0.1801,0.1812,0.1838,0.1898,0.1859,0.1865,0.1878,0.1963,0.1975,0.1982,0.202,0.2025,0.2028,0.203,0.2031,0.2181,0.2183,0,0,0,0,0,0,0.1665,0.1679,0.1766,0.1772,0.1737,0.1802,0.1814,0.183,0.1898,0.191,0.1876,0.1881,0.1969,0.1978,0.1986,0.2093,0.2028,0.2031,0.2033,0.2179,0.2181,0.2184,0,0,0,0,0,0,0.1663,0.1672,0.1762,0.1728,0.1741,0.1803,0.182,0.1831,0.1882,0.1911,0.1923,0.1922,0.1971,0.1982,0.2049,0.2093,0.2033,0.2035,0.2176,0.218,0.2183,0.2236,0,0,0,0,0,0,0.1659,0.1671,0.1696,0.1728,0.1743,0.1808,0.1819,0.1832,0.1887,0.1894,0.1953,0.1962,0.1973,0.2044,0.2052,0.2097,0.2038,0.2174,0.2178,0.2182,0.2231,0.224,0.2248,0,0,0,0,0,0.1654,0.1677,0.1697,0.1709,0.1771,0.1809,0.1819,0.1865,0.1888,0.1916,0.1962,0.1962,0.2075,0.2048,0.2057,0.2104,0.2172,0.2177,0.2181,0.2228,0.2238,0.2248,0,0,0,0,0,0,0.1639,0.1688,0.171,0.1748,0.1789,0.1823,0.1859,0.1885,0.1941,0.1963,0.1986,0.1998,0.2076,0.2082,0.2052,0.216,0.2125,0.2132,0.2157,0.2168,0.2176,0.2177,0.2041,0,0,0,0,0,0.1646,0.1682,0.1723,0.1758,0.1782,0.1827,0.1856,0.1888,0.1933,0.1961,0.2002,0.2049,0.2095,0.2125,0.2163,0.2217,0.2228,0.2254,0.2263,0.227,0.2278,0.2334,0.2348,0.2199,0.2199,0.2199,0,0,0.1648,0.1682,0.1703,0.1759,0.1796,0.1835,0.1849,0.1905,0.1948,0.1962,0.2046,0.2083,0.2117,0.2184,0.2219,0.2199,0.232,0.2276,0.2281,0.2286,0.2341,0.2355,0.2368,0.2202,0.2202,0.2201,0,0,0.1659,0.1705,0.1736,0.1774,0.1839,0.1867,0.189,0.1949,0.1994,0.2063,0.2093,0.2157,0.2222,0.2258,0.2281,0.2356,0.2363,0.2377,0.2419,0.2474,0.2487,0.2498,0.2532,0.2546,0.2379,0.2379,0.2379,0,0.1665,0.1708,0.1752,0.1791,0.183,0.1884,0.1925,0.1972,0.2049,0.2093,0.2102,0.2228,0.2254,0.2338,0.2368,0.2375,0.2404,0.2375,0.2484,0.2496,0.2506,0.2539,0.2553,0.2382,0.2382,0.2381,0.2381,0,0.1688,0.1738,0.1763,0.1831,0.1878,0.1925,0.1989,0.2052,0.211,0.2156,0.2265,0.2309,0.2383,0.2405,0.241,0.2507,0.2502,0.2488,0.2455,0.2524,0.2554,0.2568,0.2386,0.2385,0.2384,0.2384,0,0,0.1658,0.176,0.1772,0.1814,0.1908,0.1942,0.2029,0.2115,0.2181,0.2263,0.235,0.2432,0.247,0.2499,0.2526,0.2573,0.2666,0.2569,0.2571,0.2595,0.2788,0.2616,0.2615,0.2679,0.2682,0.2684,0.2779,0,0.1669,0.1741,0.1796,0.1873,0.1917,0.1999,0.2069,0.2159,0.2242,0.2339,0.2413,0.2506,0.2503,0.2556,0.2605,0.266,0.2707,0.2641,0.2724,0.2726,0.2558,0.2626,0.2693,0.2789,0.2793,0.2795,0.2797,0,0.1668,0.1723,0.1798,0.1904,0.1932,0.1989,0.2121,0.2192,0.2332,0.2403,0.251,0.2574,0.2683,0.2659,0.2784,0.2749,0.2778,0.2803,0.2807,0.2636,0.258,0.2707,0.2822,0.282,0.2818,0.2816,0.2815,0,0.1614,0.1721,0.1784,0.182,0.1944,0.2006,0.2083,0.2219,0.2301,0.2461,0.2545,0.2664,0.2753,0.2811,0.2873,0.2848,0.299,0.2953,0.2824,0.2812,0.2914,0.2901,0.3035,0.3035,0.3035,0.3035,0.3034,0,0.1587,0.1638,0.1768,0.18,0.1882,0.1986,0.2094,0.2188,0.2345,0.2439,0.258,0.2669,0.2802,0.2895,0.2916,0.2913,0.3029,0.2843,0.2829,0.2934,0.2923,0.2924,0.291,0.3038,0.3037,0.3037,0.3036,0,0.1507,0.1595,0.167,0.181,0.1857,0.1918,0.2091,0.2163,0.2331,0.2463,0.2526,0.2718,0.2827,0.2927,0.3033,0.2959,0.2974,0.2944,0.3061,0.3052,0.2748,0.2736,0.2797,0.2792,0.2787,0.2784,0.2781,0,0.1466,0.15,0.1652,0.1697,0.1765,0.1879,0.195,0.2132,0.2213,0.2461,0.2506,0.2696,0.2795,0.2813,0.2918,0.295,0.2917,0.2904,0.2806,0.2744,0.2727,0.2721,0.2715,0.2774,0.2772,0.2771,0.277,0,0.1387,0.1457,0.1521,0.1614,0.1697,0.1774,0.1897,0.1949,0.2151,0.2332,0.2433,0.2509,0.2632,0.2703,0.276,0.2771,0.2895,0.2857,0.2865,0.2772,0.2717,0.2702,0.2702,0.2755,0.2757,0.2758,0.2759,0,0.1326,0.1345,0.1441,0.1512,0.1604,0.1637,0.1722,0.1822,0.1929,0.2201,0.2225,0.2423,0.2596,0.2612,0.2658,0.2664,0.2617,0.252,0.2545,0.2563,0.2442,0.2335,0.2253,0,0,0,0,0,0.1252,0.1264,0.1327,0.1391,0.1478,0.1528,0.1668,0.1761,0.1966,0.1977,0.2098,0.2196,0.2288,0.2395,0.2354,0.2551,0.2621,0.2492,0.252,0.267,0.2688,0.2567,0,0,0,0,0,0,0.1195,0.1248,0.1283,0.1283,0.13,0.137,0.145,0.1585,0.1608,0.1827,0.1891,0.2057,0.218,0.2284,0.2309,0.234,0.2311,0.2619,0.2613,0.266,0.2676,0.269,0.2572,0,0,0,0,0]},{"header":{"parameterUnit":"m.s-1","parameterCategory":2,"la1":30.2991,"la2":30.254,"lo1":-89.0895,"lo2":-89.0444,"dy":0.0017,"dx":0.0017,"nx":28,"ny":28,"refTime":"2025-12-22T09:00:00:Z","depth":"4","parameterNumber":3,"parameterNumberName":"V-component_of_CURRENTS"},"data":[0,0,0,0,0,0,0,0,0,0,0,0,0,0,0,0,0,0,0,0,0,0,0,0,0,0,0,0,0,0,0,0,0,0,0,0,0,0,0,0,0,0,0,0,0,0,0,0,0,0,0,0,0,0,0,0,0,0,0.0102,0.0102,0,0.0055,0.0054,0.0054,0.0016,0.0016,0.0016,0.0015,-0.0066,-0.0067,-0.0069,0,0,0,0,0,0,0,0,0,0,0,0,0,0.0116,0.0116,0.0102,0.0102,0.0101,0.0055,0.0054,0.0053,0.0016,0.0016,0.0015,0.0015,-0.0065,-0.0067,-0.007,0,0,0,0,0,0,0,0,0,0,0,0,0,0.0092,0.0116,0.0102,0.0078,0.0075,0.0055,0.0054,0.0053,0.0016,0.0016,0.0015,0.0015,-0.0064,-0.0067,-0.007,-0.008,0,0,-0.0079,-0.008,0,0,0,0,0,0,0,0,0.0094,0.0092,0.0082,0.008,0.0077,0.0042,0.0029,0.0007,0.0016,0.0037,0.0015,0.0015,-0.0032,-0.0037,-0.0046,-0.0083,-0.0087,-0.0079,-0.0081,-0.0082,-0.0083,0,0,0,0,0,0,0,0.0096,0.0093,0.0082,0.0081,0.0078,0.0054,0.0051,0.0025,0.0004,0.0036,0.0033,0.003,-0.0034,-0.0044,-0.0049,-0.0088,-0.0079,-0.0081,-0.0083,-0.0084,-0.014,-0.0139,0,0,0,0,0,0,0.0107,0.0095,0.0084,0.0081,0.0086,0.0054,0.005,0.0053,0.0005,-0.0002,0.003,0.0028,-0.0038,-0.0045,-0.0052,-0.0054,-0.0082,-0.0084,-0.0086,-0.014,-0.014,-0.0139,0,0,0,0,0,0,0.0107,0.0106,0.0086,0.0087,0.0083,0.0055,0.0057,0.0052,0.0044,0.0002,-0.0007,0.0029,-0.0039,-0.0048,-0.0068,-0.0058,-0.0086,-0.0088,-0.014,-0.014,-0.014,-0.0066,0,0,0,0,0,0,0.0108,0.0107,0.0112,0.0089,0.0084,0.0083,0.0058,0.0051,0.0043,0.004,-0.0002,-0.0011,-0.004,-0.0064,-0.0071,-0.0062,-0.0091,-0.0141,-0.014,-0.014,-0.0069,-0.0063,-0.0059,0,0,0,0,0,0.0109,0.0123,0.0112,0.0111,0.0092,0.0083,0.0079,0.0056,0.0044,0.0046,0.0017,-0.0009,-0.0066,-0.0066,-0.0074,-0.0066,-0.0141,-0.014,-0.014,-0.0071,-0.0065,-0.0059,0,0,0,0,0,0,0.0131,0.012,0.0108,0.0118,0.0104,0.0078,0.0079,0.0062,0.0041,0.0038,-0.0005,-0.0014,-0.003,-0.0059,-0.0057,-0.0082,-0.0109,-0.011,-0.0054,-0.0048,-0.0043,-0.0028,-0.0093,0,0,0,0,0,0.0139,0.0146,0.0128,0.0135,0.0132,0.0105,0.0099,0.0085,0.0063,0.0053,0.0024,-0.0009,-0.0035,-0.0049,-0.0077,-0.0088,-0.0128,-0.009,-0.0085,-0.008,-0.0075,-0.0126,-0.0125,-0.0138,-0.0138,-0.0138,0,0,0.015,0.0144,0.0148,0.014,0.0127,0.0134,0.0101,0.0098,0.0103,0.0048,0.0044,0.0008,-0.0035,-0.0047,-0.0057,-0.0069,-0.0098,-0.008,-0.0075,-0.0073,-0.0126,-0.0125,-0.0124,-0.0137,-0.0137,-0.0137,0,0,0.0178,0.017,0.0187,0.0182,0.017,0.0157,0.016,0.0139,0.0127,0.0117,0.0079,0.0052,0.0014,-0.0013,-0.0032,-0.0016,-0.007,-0.0028,0.0012,-0.0037,-0.0037,-0.0037,-0.0084,-0.0089,-0.0024,-0.0024,-0.0024,0,0.019,0.0209,0.0189,0.0204,0.0208,0.0173,0.0194,0.0179,0.0153,0.0145,0.0126,0.0067,0.0032,0.0013,0.0018,-0.0004,-0.0043,-0.0005,-0.003,-0.0031,-0.0032,-0.0081,-0.0087,-0.002,-0.0021,-0.0021,-0.0021,0,0.023,0.0245,0.0256,0.0265,0.0266,0.0278,0.026,0.0254,0.0234,0.0213,0.0188,0.0136,0.0101,0.0085,0.0057,0.0035,0.0006,-0.0017,-0.0042,-0.0026,-0.0079,-0.0087,-0.0015,-0.0016,-0.0017,-0.0018,0,0,0.0255,0.0281,0.0284,0.0303,0.0302,0.0309,0.0317,0.0313,0.0317,0.0279,0.0275,0.0225,0.0189,0.0164,0.012,0.0078,0.0036,0.0033,0.0029,-0.0008,-0.0076,-0.0082,-0.0092,0.0006,0.0005,0.0004,-0.0109,0,0.0292,0.0339,0.034,0.0384,0.0407,0.0388,0.0402,0.0391,0.0367,0.0352,0.0293,0.0271,0.0222,0.0205,0.0156,0.0064,0.0018,0.0068,-0.0092,-0.0097,-0.0099,-0.01,0.0001,-0.0115,-0.0117,-0.0118,-0.0119,0,0.0327,0.0357,0.041,0.0448,0.0457,0.0478,0.0489,0.0497,0.0464,0.0443,0.0403,0.0352,0.0291,0.0246,0.01,0.0132,0.0039,-0.0036,-0.0043,-0.0079,-0.0117,-0.0137,-0.0134,-0.0133,-0.0132,-0.0131,-0.013,0,0.0353,0.0404,0.0452,0.0465,0.05,0.0521,0.0537,0.0523,0.054,0.0499,0.0497,0.0408,0.0367,0.0241,0.009,0.0091,-0.008,-0.01,-0.0195,-0.0197,-0.019,-0.0189,-0.0203,-0.0202,-0.0202,-0.0202,-0.0202,0,0.0387,0.0425,0.0471,0.0498,0.0556,0.0563,0.0615,0.0605,0.0609,0.0632,0.055,0.0535,0.0363,0.0248,0.0105,-0.0069,-0.0073,-0.0189,-0.0226,-0.0157,-0.0151,-0.0196,-0.0193,-0.0206,-0.0205,-0.0204,-0.0204,0,0.0402,0.0433,0.0493,0.0548,0.0572,0.0611,0.0682,0.0715,0.0704,0.0728,0.0723,0.0624,0.0468,0.0287,0.007,-0.0042,-0.0212,-0.0274,-0.0185,-0.0215,-0.0301,-0.0293,-0.0386,-0.0388,-0.0389,-0.0389,-0.039,0,0.0412,0.0446,0.053,0.0577,0.0608,0.0676,0.0729,0.0755,0.0795,0.0782,0.0795,0.0666,0.0574,0.0272,0.0067,-0.0213,-0.025,-0.0336,-0.0317,-0.0293,-0.032,-0.0311,-0.0302,-0.0392,-0.0392,-0.0392,-0.0392,0,0.0434,0.0465,0.0517,0.0617,0.0687,0.0772,0.0846,0.0884,0.0912,0.0905,0.0858,0.0706,0.0525,0.0282,0.0059,-0.0139,-0.0278,-0.0347,-0.0346,-0.0329,-0.03,-0.0324,-0.0314,-0.0396,-0.0395,-0.0395,-0.0395,0,0.0451,0.0489,0.0567,0.0651,0.0745,0.0838,0.0879,0.0929,0.0966,0.095,0.0928,0.0734,0.0619,0.0319,0.0115,-0.0085,-0.0133,-0.0186,-0.0195,-0.0194,-0.0106,-0.0039,-0.0085,0,0,0,0,0,0.0468,0.052,0.06,0.07,0.0794,0.0855,0.0947,0.0981,0.1007,0.0988,0.0964,0.0797,0.0497,0.0365,0.0164,0.008,-0.0181,-0.0162,-0.0248,-0.0414,-0.0411,-0.0342,0,0,0,0,0,0,0.0484,0.0561,0.06,0.0725,0.08,0.0913,0.0976,0.0998,0.0991,0.098,0.0824,0.0749,0.0453,0.0609,0.0159,0.0097,0.0016,-0.0305,-0.0309,-0.0417,-0.0413,-0.041,-0.0338,0,0,0,0,0]}]]